Year,Month,Day,Hour,Minute,Value (Times are PST for temperature in C)
2017,12,15,00,00,4.20
2017,12,15,00,01,4.20
2017,12,15,00,02,4.20
2017,12,15,00,03,4.20
2017,12,15,00,04,4.20
2017,12,15,00,05,4.20
2017,12,15,00,06,4.20
2017,12,15,00,07,4.20
2017,12,15,00,08,4.20
2017,12,15,00,09,4.20
2017,12,15,00,10,4.20
2017,12,15,00,11,4.20
2017,12,15,00,12,4.20
2017,12,15,00,13,4.20
2017,12,15,00,14,4.20
2017,12,15,00,15,4.20
2017,12,15,00,16,4.10
2017,12,15,00,17,4.10
2017,12,15,00,18,4.10
2017,12,15,00,19,4.10
2017,12,15,00,20,4.10
2017,12,15,00,21,4.10
2017,12,15,00,22,4.10
2017,12,15,00,23,4.10
2017,12,15,00,24,4.10
2017,12,15,00,25,4.10
2017,12,15,00,26,4.10
2017,12,15,00,27,4.10
2017,12,15,00,28,4.10
2017,12,15,00,29,4.10
2017,12,15,00,30,4.10
2017,12,15,00,31,4.10
2017,12,15,00,32,4.10
2017,12,15,00,33,4.10
2017,12,15,00,34,4.10
2017,12,15,00,35,4.10
2017,12,15,00,36,4.10
2017,12,15,00,37,4.10
2017,12,15,00,38,4.10
2017,12,15,00,39,4.10
2017,12,15,00,40,4.20
2017,12,15,00,41,4.10
2017,12,15,00,42,4.20
2017,12,15,00,43,4.20
2017,12,15,00,44,4.20
2017,12,15,00,45,4.20
2017,12,15,00,46,4.20
2017,12,15,00,47,4.20
2017,12,15,00,48,4.20
2017,12,15,00,49,4.20
2017,12,15,00,50,4.20
2017,12,15,00,51,4.20
2017,12,15,00,52,4.20
2017,12,15,00,53,4.20
2017,12,15,00,54,4.30
2017,12,15,00,55,4.30
2017,12,15,00,56,4.30
2017,12,15,00,57,4.30
2017,12,15,00,58,4.30
2017,12,15,00,59,4.30
2017,12,15,01,00,4.30
2017,12,15,01,01,4.30
2017,12,15,01,02,4.30
2017,12,15,01,03,4.30
2017,12,15,01,04,4.30
2017,12,15,01,05,4.30
2017,12,15,01,06,4.40
2017,12,15,01,07,4.40
2017,12,15,01,08,4.40
2017,12,15,01,09,4.40
2017,12,15,01,10,4.40
2017,12,15,01,11,4.40
2017,12,15,01,12,4.40
2017,12,15,01,13,4.40
2017,12,15,01,14,4.40
2017,12,15,01,15,4.40
2017,12,15,01,16,4.40
2017,12,15,01,17,4.40
2017,12,15,01,18,4.40
2017,12,15,01,19,4.40
2017,12,15,01,20,4.40
2017,12,15,01,21,4.40
2017,12,15,01,22,4.40
2017,12,15,01,23,4.40
2017,12,15,01,24,4.40
2017,12,15,01,25,4.40
2017,12,15,01,26,4.40
2017,12,15,01,27,4.30
2017,12,15,01,28,4.30
2017,12,15,01,29,4.30
2017,12,15,01,30,4.30
2017,12,15,01,31,4.30
2017,12,15,01,32,4.30
2017,12,15,01,33,4.30
2017,12,15,01,34,4.30
2017,12,15,01,35,4.30
2017,12,15,01,36,4.30
2017,12,15,01,37,4.30
2017,12,15,01,38,4.30
2017,12,15,01,39,4.30
2017,12,15,01,40,4.30
2017,12,15,01,41,4.30
2017,12,15,01,42,4.30
2017,12,15,01,43,4.30
2017,12,15,01,44,4.30
2017,12,15,01,45,4.30
2017,12,15,01,46,4.30
2017,12,15,01,47,4.30
2017,12,15,01,48,4.30
2017,12,15,01,49,4.30
2017,12,15,01,50,4.30
2017,12,15,01,51,4.30
2017,12,15,01,52,4.30
2017,12,15,01,53,4.30
2017,12,15,01,54,4.30
2017,12,15,01,55,4.30
2017,12,15,01,56,4.30
2017,12,15,01,57,4.30
2017,12,15,01,58,4.30
2017,12,15,01,59,4.30
2017,12,15,02,00,4.30
2017,12,15,02,01,4.30
2017,12,15,02,02,4.30
2017,12,15,02,03,4.30
2017,12,15,02,04,4.30
2017,12,15,02,05,4.30
2017,12,15,02,06,4.30
2017,12,15,02,07,4.30
2017,12,15,02,08,4.40
2017,12,15,02,09,4.40
2017,12,15,02,10,4.40
2017,12,15,02,11,4.40
2017,12,15,02,12,4.40
2017,12,15,02,13,4.40
2017,12,15,02,14,4.50
2017,12,15,02,15,4.50
2017,12,15,02,16,4.50
2017,12,15,02,17,4.50
2017,12,15,02,18,4.40
2017,12,15,02,19,4.40
2017,12,15,02,20,4.40
2017,12,15,02,21,4.40
2017,12,15,02,22,4.40
2017,12,15,02,23,4.40
2017,12,15,02,24,4.40
2017,12,15,02,25,4.40
2017,12,15,02,26,4.40
2017,12,15,02,27,4.40
2017,12,15,02,28,4.40
2017,12,15,02,29,4.40
2017,12,15,02,30,4.40
2017,12,15,02,31,4.40
2017,12,15,02,32,4.40
2017,12,15,02,33,4.40
2017,12,15,02,34,4.40
2017,12,15,02,35,4.40
2017,12,15,02,36,4.40
2017,12,15,02,37,4.40
2017,12,15,02,38,4.30
2017,12,15,02,39,4.30
2017,12,15,02,40,4.30
2017,12,15,02,41,4.30
2017,12,15,02,42,4.30
2017,12,15,02,43,4.30
2017,12,15,02,44,4.30
2017,12,15,02,45,4.30
2017,12,15,02,46,4.30
2017,12,15,02,47,4.30
2017,12,15,02,48,4.30
2017,12,15,02,49,4.30
2017,12,15,02,50,4.30
2017,12,15,02,51,4.30
2017,12,15,02,52,4.30
2017,12,15,02,53,4.30
2017,12,15,02,54,4.30
2017,12,15,02,55,4.30
2017,12,15,02,56,4.30
2017,12,15,02,57,4.30
2017,12,15,02,58,4.30
2017,12,15,02,59,4.30
2017,12,15,03,00,4.40
2017,12,15,03,01,4.40
2017,12,15,03,02,4.40
2017,12,15,03,03,4.40
2017,12,15,03,04,4.40
2017,12,15,03,05,4.40
2017,12,15,03,06,4.40
2017,12,15,03,07,4.40
2017,12,15,03,08,4.40
2017,12,15,03,09,4.40
2017,12,15,03,10,4.40
2017,12,15,03,11,4.40
2017,12,15,03,12,4.40
2017,12,15,03,13,4.40
2017,12,15,03,14,4.40
2017,12,15,03,15,4.40
2017,12,15,03,16,4.40
2017,12,15,03,17,4.40
2017,12,15,03,18,4.40
2017,12,15,03,19,4.40
2017,12,15,03,20,4.40
2017,12,15,03,21,4.40
2017,12,15,03,22,4.40
2017,12,15,03,23,4.40
2017,12,15,03,24,4.40
2017,12,15,03,25,4.40
2017,12,15,03,26,4.40
2017,12,15,03,27,4.40
2017,12,15,03,28,4.40
2017,12,15,03,29,4.40
2017,12,15,03,30,4.40
2017,12,15,03,31,4.40
2017,12,15,03,32,4.40
2017,12,15,03,33,4.40
2017,12,15,03,34,4.40
2017,12,15,03,35,4.40
2017,12,15,03,36,4.40
2017,12,15,03,37,4.40
2017,12,15,03,38,4.40
2017,12,15,03,39,4.40
2017,12,15,03,40,4.50
2017,12,15,03,41,4.50
2017,12,15,03,42,4.50
2017,12,15,03,43,4.50
2017,12,15,03,44,4.50
2017,12,15,03,45,4.50
2017,12,15,03,46,4.50
2017,12,15,03,47,4.50
2017,12,15,03,48,4.60
2017,12,15,03,49,4.50
2017,12,15,03,50,4.50
2017,12,15,03,51,4.50
2017,12,15,03,52,4.50
2017,12,15,03,53,4.50
2017,12,15,03,54,4.50
2017,12,15,03,55,4.50
2017,12,15,03,56,4.50
2017,12,15,03,57,4.50
2017,12,15,03,58,4.50
2017,12,15,03,59,4.50
2017,12,15,04,00,4.50
2017,12,15,04,01,4.50
2017,12,15,04,02,4.50
2017,12,15,04,03,4.50
2017,12,15,04,04,4.50
2017,12,15,04,05,4.50
2017,12,15,04,06,4.50
2017,12,15,04,07,4.50
2017,12,15,04,08,4.50
2017,12,15,04,09,4.50
2017,12,15,04,10,4.50
2017,12,15,04,11,4.50
2017,12,15,04,12,4.60
2017,12,15,04,13,4.60
2017,12,15,04,14,4.60
2017,12,15,04,15,4.60
2017,12,15,04,16,4.60
2017,12,15,04,17,4.60
2017,12,15,04,18,4.60
2017,12,15,04,19,4.60
2017,12,15,04,20,4.60
2017,12,15,04,21,4.60
2017,12,15,04,22,4.60
2017,12,15,04,23,4.60
2017,12,15,04,24,4.60
2017,12,15,04,25,4.60
2017,12,15,04,26,4.60
2017,12,15,04,27,4.50
2017,12,15,04,28,4.60
2017,12,15,04,29,4.60
2017,12,15,04,30,4.60
2017,12,15,04,31,4.60
2017,12,15,04,32,4.60
2017,12,15,04,33,4.60
2017,12,15,04,34,4.60
2017,12,15,04,35,4.60
2017,12,15,04,36,4.60
2017,12,15,04,37,4.60
2017,12,15,04,38,4.60
2017,12,15,04,39,4.60
2017,12,15,04,40,4.60
2017,12,15,04,41,4.60
2017,12,15,04,42,4.50
2017,12,15,04,43,4.50
2017,12,15,04,44,4.50
2017,12,15,04,45,4.50
2017,12,15,04,46,4.40
2017,12,15,04,47,4.40
2017,12,15,04,48,4.40
2017,12,15,04,49,4.40
2017,12,15,04,50,4.40
2017,12,15,04,51,4.40
2017,12,15,04,52,4.40
2017,12,15,04,53,4.40
2017,12,15,04,54,4.40
2017,12,15,04,55,4.40
2017,12,15,04,56,4.40
2017,12,15,04,57,4.40
2017,12,15,04,58,4.40
2017,12,15,04,59,4.40
2017,12,15,05,00,4.40
2017,12,15,05,01,4.40
2017,12,15,05,02,4.40
2017,12,15,05,03,4.40
2017,12,15,05,04,4.40
2017,12,15,05,05,4.40
2017,12,15,05,06,4.40
2017,12,15,05,07,4.40
2017,12,15,05,08,4.40
2017,12,15,05,09,4.40
2017,12,15,05,10,4.40
2017,12,15,05,11,4.40
2017,12,15,05,12,4.40
2017,12,15,05,13,4.40
2017,12,15,05,14,4.40
2017,12,15,05,15,4.40
2017,12,15,05,16,4.40
2017,12,15,05,17,4.40
2017,12,15,05,18,4.40
2017,12,15,05,19,4.40
2017,12,15,05,20,4.40
2017,12,15,05,21,4.40
2017,12,15,05,22,4.40
2017,12,15,05,23,4.40
2017,12,15,05,24,4.40
2017,12,15,05,25,4.40
2017,12,15,05,26,4.40
2017,12,15,05,27,4.40
2017,12,15,05,28,4.40
2017,12,15,05,29,4.40
2017,12,15,05,30,4.40
2017,12,15,05,31,4.40
2017,12,15,05,32,4.40
2017,12,15,05,33,4.40
2017,12,15,05,34,4.50
2017,12,15,05,35,4.50
2017,12,15,05,36,4.50
2017,12,15,05,37,4.50
2017,12,15,05,38,4.50
2017,12,15,05,39,4.50
2017,12,15,05,40,4.50
2017,12,15,05,41,4.50
2017,12,15,05,42,4.50
2017,12,15,05,43,4.50
2017,12,15,05,44,4.40
2017,12,15,05,45,4.40
2017,12,15,05,46,4.40
2017,12,15,05,47,4.40
2017,12,15,05,48,4.40
2017,12,15,05,49,4.40
2017,12,15,05,50,4.40
2017,12,15,05,51,4.40
2017,12,15,05,52,4.40
2017,12,15,05,53,4.40
2017,12,15,05,54,4.40
2017,12,15,05,55,4.30
2017,12,15,05,56,4.40
2017,12,15,05,57,4.30
2017,12,15,05,58,4.30
2017,12,15,05,59,4.30
2017,12,15,06,00,4.30
2017,12,15,06,01,4.30
2017,12,15,06,02,4.30
2017,12,15,06,03,4.30
2017,12,15,06,04,4.20
2017,12,15,06,05,4.20
2017,12,15,06,06,4.20
2017,12,15,06,07,4.20
2017,12,15,06,08,4.20
2017,12,15,06,09,4.20
2017,12,15,06,10,4.20
2017,12,15,06,11,4.20
2017,12,15,06,12,4.20
2017,12,15,06,13,4.20
2017,12,15,06,14,4.10
2017,12,15,06,15,4.10
2017,12,15,06,16,4.10
2017,12,15,06,17,4.10
2017,12,15,06,18,4.00
2017,12,15,06,19,4.00
2017,12,15,06,20,4.00
2017,12,15,06,21,4.00
2017,12,15,06,22,3.90
2017,12,15,06,23,3.90
2017,12,15,06,24,3.90
2017,12,15,06,25,3.90
2017,12,15,06,26,3.90
2017,12,15,06,27,3.90
2017,12,15,06,28,3.90
2017,12,15,06,29,3.80
2017,12,15,06,30,3.80
2017,12,15,06,31,3.80
2017,12,15,06,32,3.80
2017,12,15,06,33,3.80
2017,12,15,06,34,3.80
2017,12,15,06,35,3.80
2017,12,15,06,36,3.80
2017,12,15,06,37,3.70
2017,12,15,06,38,3.70
2017,12,15,06,39,3.70
2017,12,15,06,40,3.70
2017,12,15,06,41,3.70
2017,12,15,06,42,3.70
2017,12,15,06,43,3.60
2017,12,15,06,44,3.60
2017,12,15,06,45,3.60
2017,12,15,06,46,3.60
2017,12,15,06,47,3.60
2017,12,15,06,48,3.60
2017,12,15,06,49,3.60
2017,12,15,06,50,3.60
2017,12,15,06,51,3.60
2017,12,15,06,52,3.60
2017,12,15,06,53,3.50
2017,12,15,06,54,3.50
2017,12,15,06,55,3.50
2017,12,15,06,56,3.50
2017,12,15,06,57,3.50
2017,12,15,06,58,3.40
2017,12,15,06,59,3.40
2017,12,15,07,00,3.40
2017,12,15,07,01,3.40
2017,12,15,07,02,3.40
2017,12,15,07,03,3.40
2017,12,15,07,04,3.40
2017,12,15,07,05,3.40
2017,12,15,07,06,3.30
2017,12,15,07,07,3.30
2017,12,15,07,08,3.30
2017,12,15,07,09,3.30
2017,12,15,07,10,3.40
2017,12,15,07,11,3.40
2017,12,15,07,12,3.40
2017,12,15,07,13,3.40
2017,12,15,07,14,3.30
2017,12,15,07,15,3.30
2017,12,15,07,16,3.30
2017,12,15,07,17,3.20
2017,12,15,07,18,3.20
2017,12,15,07,19,3.20
2017,12,15,07,20,3.20
2017,12,15,07,21,3.20
2017,12,15,07,22,3.10
2017,12,15,07,23,3.10
2017,12,15,07,24,3.10
2017,12,15,07,25,3.00
2017,12,15,07,26,3.00
2017,12,15,07,27,3.00
2017,12,15,07,28,3.00
2017,12,15,07,29,3.00
2017,12,15,07,30,3.00
2017,12,15,07,31,3.00
2017,12,15,07,32,3.00
2017,12,15,07,33,3.00
2017,12,15,07,34,2.90
2017,12,15,07,35,2.90
2017,12,15,07,36,2.80
2017,12,15,07,37,2.80
2017,12,15,07,38,2.80
2017,12,15,07,39,2.70
2017,12,15,07,40,2.70
2017,12,15,07,41,2.70
2017,12,15,07,42,2.70
2017,12,15,07,43,2.70
2017,12,15,07,44,2.70
2017,12,15,07,45,2.60
2017,12,15,07,46,2.60
2017,12,15,07,47,2.70
2017,12,15,07,48,2.70
2017,12,15,07,49,2.70
2017,12,15,07,50,2.70
2017,12,15,07,51,2.70
2017,12,15,07,52,2.70
2017,12,15,07,53,2.70
2017,12,15,07,54,2.70
2017,12,15,07,55,2.70
2017,12,15,07,56,2.60
2017,12,15,07,57,2.60
2017,12,15,07,58,2.60
2017,12,15,07,59,2.60
2017,12,15,08,00,2.60
2017,12,15,08,01,2.60
2017,12,15,08,02,2.60
2017,12,15,08,03,2.60
2017,12,15,08,04,2.60
2017,12,15,08,05,2.50
2017,12,15,08,06,2.60
2017,12,15,08,07,2.60
2017,12,15,08,08,2.60
2017,12,15,08,09,2.50
2017,12,15,08,10,2.50
2017,12,15,08,11,2.50
2017,12,15,08,12,2.50
2017,12,15,08,13,2.50
2017,12,15,08,14,2.50
2017,12,15,08,15,2.50
2017,12,15,08,16,2.40
2017,12,15,08,17,2.40
2017,12,15,08,18,2.40
2017,12,15,08,19,2.50
2017,12,15,08,20,2.50
2017,12,15,08,21,2.50
2017,12,15,08,22,2.50
2017,12,15,08,23,2.50
2017,12,15,08,24,2.50
2017,12,15,08,25,2.50
2017,12,15,08,26,2.50
2017,12,15,08,27,2.50
2017,12,15,08,28,2.50
2017,12,15,08,29,2.50
2017,12,15,08,30,2.50
2017,12,15,08,31,2.50
2017,12,15,08,32,2.50
2017,12,15,08,33,2.50
2017,12,15,08,34,2.50
2017,12,15,08,35,2.50
2017,12,15,08,36,2.50
2017,12,15,08,37,2.50
2017,12,15,08,38,2.50
2017,12,15,08,39,2.50
2017,12,15,08,40,2.50
2017,12,15,08,41,2.50
2017,12,15,08,42,2.50
2017,12,15,08,43,2.50
2017,12,15,08,44,2.50
2017,12,15,08,45,2.50
2017,12,15,08,46,2.50
2017,12,15,08,47,2.50
2017,12,15,08,48,2.50
2017,12,15,08,49,2.50
2017,12,15,08,50,2.50
2017,12,15,08,51,2.40
2017,12,15,08,52,2.40
2017,12,15,08,53,2.40
2017,12,15,08,54,2.40
2017,12,15,08,55,2.40
2017,12,15,08,56,2.30
2017,12,15,08,57,2.30
2017,12,15,08,58,2.30
2017,12,15,08,59,2.30
2017,12,15,09,00,2.30
2017,12,15,09,01,2.30
2017,12,15,09,02,2.30
2017,12,15,09,03,2.40
2017,12,15,09,04,2.40
2017,12,15,09,05,2.40
2017,12,15,09,06,2.40
2017,12,15,09,07,2.40
2017,12,15,09,08,2.50
2017,12,15,09,09,2.50
2017,12,15,09,10,2.60
2017,12,15,09,11,2.60
2017,12,15,09,12,2.60
2017,12,15,09,13,2.60
2017,12,15,09,14,2.70
2017,12,15,09,15,2.70
2017,12,15,09,16,2.70
2017,12,15,09,17,2.80
2017,12,15,09,18,2.80
2017,12,15,09,19,2.90
2017,12,15,09,20,3.00
2017,12,15,09,21,3.10
2017,12,15,09,22,3.20
2017,12,15,09,23,3.30
2017,12,15,09,24,3.30
2017,12,15,09,25,3.40
2017,12,15,09,26,3.40
2017,12,15,09,27,3.50
2017,12,15,09,28,3.50
2017,12,15,09,29,3.60
2017,12,15,09,30,3.60
2017,12,15,09,31,3.60
2017,12,15,09,32,3.70
2017,12,15,09,33,3.70
2017,12,15,09,34,3.70
2017,12,15,09,35,3.70
2017,12,15,09,36,3.70
2017,12,15,09,37,3.70
2017,12,15,09,38,3.70
2017,12,15,09,39,3.70
2017,12,15,09,40,3.70
2017,12,15,09,41,3.70
2017,12,15,09,42,3.70
2017,12,15,09,43,3.70
2017,12,15,09,44,3.80
2017,12,15,09,45,3.80
2017,12,15,09,46,3.80
2017,12,15,09,47,3.90
2017,12,15,09,48,3.90
2017,12,15,09,49,3.90
2017,12,15,09,50,3.90
2017,12,15,09,51,4.00
2017,12,15,09,52,4.00
2017,12,15,09,53,4.00
2017,12,15,09,54,3.90
2017,12,15,09,55,3.90
2017,12,15,09,56,3.80
2017,12,15,09,57,3.80
2017,12,15,09,58,3.80
2017,12,15,09,59,3.80
2017,12,15,10,00,3.80
2017,12,15,10,01,3.80
2017,12,15,10,02,3.70
2017,12,15,10,03,3.70
2017,12,15,10,04,3.70
2017,12,15,10,05,3.70
2017,12,15,10,06,3.70
2017,12,15,10,07,3.70
2017,12,15,10,08,3.70
2017,12,15,10,09,3.70
2017,12,15,10,10,3.70
2017,12,15,10,11,3.80
2017,12,15,10,12,3.80
2017,12,15,10,13,3.80
2017,12,15,10,14,3.80
2017,12,15,10,15,3.80
2017,12,15,10,16,3.80
2017,12,15,10,17,3.90
2017,12,15,10,18,3.90
2017,12,15,10,19,4.00
2017,12,15,10,20,4.10
2017,12,15,10,21,4.10
2017,12,15,10,22,4.10
2017,12,15,10,23,4.10
2017,12,15,10,24,4.20
2017,12,15,10,25,4.20
2017,12,15,10,26,4.30
2017,12,15,10,27,4.30
2017,12,15,10,28,4.30
2017,12,15,10,29,4.40
2017,12,15,10,30,4.40
2017,12,15,10,31,4.40
2017,12,15,10,32,4.40
2017,12,15,10,33,4.50
2017,12,15,10,34,4.50
2017,12,15,10,35,4.60
2017,12,15,10,36,4.60
2017,12,15,10,37,4.60
2017,12,15,10,38,4.70
2017,12,15,10,39,4.80
2017,12,15,10,40,4.80
2017,12,15,10,41,4.80
2017,12,15,10,42,4.80
2017,12,15,10,43,4.80
2017,12,15,10,44,4.90
2017,12,15,10,45,4.90
2017,12,15,10,46,5.00
2017,12,15,10,47,5.00
2017,12,15,10,48,5.10
2017,12,15,10,49,5.10
2017,12,15,10,50,5.20
2017,12,15,10,51,5.20
2017,12,15,10,52,5.20
2017,12,15,10,53,5.30
2017,12,15,10,54,5.30
2017,12,15,10,55,5.30
2017,12,15,10,56,5.40
2017,12,15,10,57,5.50
2017,12,15,10,58,5.50
2017,12,15,10,59,5.60
2017,12,15,11,00,5.60
2017,12,15,11,01,5.70
2017,12,15,11,02,5.80
2017,12,15,11,03,5.80
2017,12,15,11,04,5.80
2017,12,15,11,05,5.90
2017,12,15,11,06,5.90
2017,12,15,11,07,6.00
2017,12,15,11,08,6.00
2017,12,15,11,09,6.10
2017,12,15,11,10,6.10
2017,12,15,11,11,6.10
2017,12,15,11,12,6.10
2017,12,15,11,13,6.00
2017,12,15,11,14,6.10
2017,12,15,11,15,6.10
2017,12,15,11,16,6.00
2017,12,15,11,17,6.10
2017,12,15,11,18,6.10
2017,12,15,11,19,6.10
2017,12,15,11,20,6.20
2017,12,15,11,21,6.20
2017,12,15,11,22,6.30
2017,12,15,11,23,6.30
2017,12,15,11,24,6.30
2017,12,15,11,25,6.30
2017,12,15,11,26,6.30
2017,12,15,11,27,6.40
2017,12,15,11,28,6.40
2017,12,15,11,29,6.40
2017,12,15,11,30,6.40
2017,12,15,11,31,6.40
2017,12,15,11,32,6.40
2017,12,15,11,33,6.40
2017,12,15,11,34,6.40
2017,12,15,11,35,6.40
2017,12,15,11,36,6.50
2017,12,15,11,37,6.50
2017,12,15,11,38,6.60
2017,12,15,11,39,6.60
2017,12,15,11,40,6.60
2017,12,15,11,41,6.60
2017,12,15,11,42,6.60
2017,12,15,11,43,6.70
2017,12,15,11,44,6.70
2017,12,15,11,45,6.70
2017,12,15,11,46,6.70
2017,12,15,11,47,6.70
2017,12,15,11,48,6.70
2017,12,15,11,49,6.70
2017,12,15,11,50,6.80
2017,12,15,11,51,6.80
2017,12,15,11,52,6.90
2017,12,15,11,53,6.90
2017,12,15,11,54,7.00
2017,12,15,11,55,7.00
2017,12,15,11,56,6.90
2017,12,15,11,57,6.90
2017,12,15,11,58,6.90
2017,12,15,11,59,7.00
2017,12,15,12,00,7.00
2017,12,15,12,01,7.00
2017,12,15,12,02,7.10
2017,12,15,12,03,7.10
2017,12,15,12,04,7.10
2017,12,15,12,05,7.10
2017,12,15,12,06,7.10
2017,12,15,12,07,7.10
2017,12,15,12,08,7.20
2017,12,15,12,09,7.30
2017,12,15,12,10,7.30
2017,12,15,12,11,7.40
2017,12,15,12,12,7.40
2017,12,15,12,13,7.50
2017,12,15,12,14,7.50
2017,12,15,12,15,7.50
2017,12,15,12,16,7.50
2017,12,15,12,17,7.30
2017,12,15,12,18,7.30
2017,12,15,12,19,7.20
2017,12,15,12,20,7.20
2017,12,15,12,21,7.20
2017,12,15,12,22,7.20
2017,12,15,12,23,7.30
2017,12,15,12,24,7.30
2017,12,15,12,25,7.30
2017,12,15,12,26,7.30
2017,12,15,12,27,7.40
2017,12,15,12,28,7.50
2017,12,15,12,29,7.60
2017,12,15,12,30,7.50
2017,12,15,12,31,7.60
2017,12,15,12,32,7.60
2017,12,15,12,33,7.70
2017,12,15,12,34,7.70
2017,12,15,12,35,7.80
2017,12,15,12,36,7.80
2017,12,15,12,37,7.90
2017,12,15,12,38,7.90
2017,12,15,12,39,7.90
2017,12,15,12,40,7.90
2017,12,15,12,41,8.00
2017,12,15,12,42,8.00
2017,12,15,12,43,8.00
2017,12,15,12,44,8.10
2017,12,15,12,45,8.10
2017,12,15,12,46,8.10
2017,12,15,12,47,8.10
2017,12,15,12,48,8.10
2017,12,15,12,49,8.10
2017,12,15,12,50,8.10
2017,12,15,12,51,8.20
2017,12,15,12,52,8.20
2017,12,15,12,53,8.20
2017,12,15,12,54,8.20
2017,12,15,12,55,8.20
2017,12,15,12,56,8.20
2017,12,15,12,57,8.20
2017,12,15,12,58,8.20
2017,12,15,12,59,8.20
2017,12,15,13,00,8.20
2017,12,15,13,01,8.20
2017,12,15,13,02,8.20
2017,12,15,13,03,8.20
2017,12,15,13,04,8.20
2017,12,15,13,05,8.20
2017,12,15,13,06,8.20
2017,12,15,13,07,8.20
2017,12,15,13,08,8.10
2017,12,15,13,09,8.10
2017,12,15,13,10,8.10
2017,12,15,13,11,8.10
2017,12,15,13,12,8.10
2017,12,15,13,13,8.10
2017,12,15,13,14,8.10
2017,12,15,13,15,8.10
2017,12,15,13,16,8.00
2017,12,15,13,17,8.00
2017,12,15,13,18,8.00
2017,12,15,13,19,8.00
2017,12,15,13,20,8.10
2017,12,15,13,21,8.10
2017,12,15,13,22,8.10
2017,12,15,13,23,8.10
2017,12,15,13,24,8.00
2017,12,15,13,25,8.00
2017,12,15,13,26,8.00
2017,12,15,13,27,8.00
2017,12,15,13,28,7.90
2017,12,15,13,29,7.90
2017,12,15,13,30,7.90
2017,12,15,13,31,7.90
2017,12,15,13,32,7.90
2017,12,15,13,33,7.90
2017,12,15,13,34,8.00
2017,12,15,13,35,7.90
2017,12,15,13,36,7.90
2017,12,15,13,37,7.90
2017,12,15,13,38,7.90
2017,12,15,13,39,7.90
2017,12,15,13,40,7.90
2017,12,15,13,41,7.90
2017,12,15,13,42,7.90
2017,12,15,13,43,7.90
2017,12,15,13,44,7.90
2017,12,15,13,45,7.90
2017,12,15,13,46,7.90
2017,12,15,13,47,7.90
2017,12,15,13,48,7.80
2017,12,15,13,49,7.80
2017,12,15,13,50,7.90
2017,12,15,13,51,7.90
2017,12,15,13,52,7.90
2017,12,15,13,53,8.00
2017,12,15,13,54,7.90
2017,12,15,13,55,8.00
2017,12,15,13,56,8.10
2017,12,15,13,57,8.10
2017,12,15,13,58,8.20
2017,12,15,13,59,8.20
2017,12,15,14,00,8.30
2017,12,15,14,01,8.30
2017,12,15,14,02,8.30
2017,12,15,14,03,8.30
2017,12,15,14,04,8.30
2017,12,15,14,05,8.30
2017,12,15,14,06,8.30
2017,12,15,14,07,8.20
2017,12,15,14,08,8.20
2017,12,15,14,09,8.20
2017,12,15,14,10,8.20
2017,12,15,14,11,8.20
2017,12,15,14,12,8.20
2017,12,15,14,13,8.30
2017,12,15,14,14,8.30
2017,12,15,14,15,8.30
2017,12,15,14,16,8.30
2017,12,15,14,17,8.30
2017,12,15,14,18,8.30
2017,12,15,14,19,8.30
2017,12,15,14,20,8.30
2017,12,15,14,21,8.30
2017,12,15,14,22,8.20
2017,12,15,14,23,8.30
2017,12,15,14,24,8.30
2017,12,15,14,25,8.20
2017,12,15,14,26,8.20
2017,12,15,14,27,8.20
2017,12,15,14,28,8.20
2017,12,15,14,29,8.20
2017,12,15,14,30,8.20
2017,12,15,14,31,8.20
2017,12,15,14,32,8.20
2017,12,15,14,33,8.20
2017,12,15,14,34,8.20
2017,12,15,14,35,8.30
2017,12,15,14,36,8.30
2017,12,15,14,37,8.30
2017,12,15,14,38,8.30
2017,12,15,14,39,8.30
2017,12,15,14,40,8.40
2017,12,15,14,41,8.50
2017,12,15,14,42,8.50
2017,12,15,14,43,8.60
2017,12,15,14,44,8.70
2017,12,15,14,45,8.70
2017,12,15,14,46,8.70
2017,12,15,14,47,8.80
2017,12,15,14,48,8.90
2017,12,15,14,49,9.00
2017,12,15,14,50,9.00
2017,12,15,14,51,9.10
2017,12,15,14,52,9.20
2017,12,15,14,53,9.10
2017,12,15,14,54,9.10
2017,12,15,14,55,9.10
2017,12,15,14,56,9.10
2017,12,15,14,57,9.10
2017,12,15,14,58,9.10
2017,12,15,14,59,9.10
2017,12,15,15,00,9.10
2017,12,15,15,01,9.10
2017,12,15,15,02,9.10
2017,12,15,15,03,9.10
2017,12,15,15,04,9.10
2017,12,15,15,05,9.10
2017,12,15,15,06,9.00
2017,12,15,15,07,9.00
2017,12,15,15,08,9.00
2017,12,15,15,09,8.90
2017,12,15,15,10,8.90
2017,12,15,15,11,8.90
2017,12,15,15,12,8.90
2017,12,15,15,13,8.80
2017,12,15,15,14,8.80
2017,12,15,15,15,8.80
2017,12,15,15,16,8.70
2017,12,15,15,17,8.70
2017,12,15,15,18,8.60
2017,12,15,15,19,8.60
2017,12,15,15,20,8.60
2017,12,15,15,21,8.60
2017,12,15,15,22,8.60
2017,12,15,15,23,8.60
2017,12,15,15,24,8.60
2017,12,15,15,25,8.60
2017,12,15,15,26,8.50
2017,12,15,15,27,8.50
2017,12,15,15,28,8.50
2017,12,15,15,29,8.50
2017,12,15,15,30,8.40
2017,12,15,15,31,8.40
2017,12,15,15,32,8.40
2017,12,15,15,33,8.30
2017,12,15,15,34,8.30
2017,12,15,15,35,8.30
2017,12,15,15,36,8.30
2017,12,15,15,37,8.30
2017,12,15,15,38,8.30
2017,12,15,15,39,8.30
2017,12,15,15,40,8.20
2017,12,15,15,41,8.20
2017,12,15,15,42,8.20
2017,12,15,15,43,8.20
2017,12,15,15,44,8.10
2017,12,15,15,45,8.10
2017,12,15,15,46,8.10
2017,12,15,15,47,8.10
2017,12,15,15,48,8.10
2017,12,15,15,49,8.10
2017,12,15,15,50,8.10
2017,12,15,15,51,8.10
2017,12,15,15,52,8.10
2017,12,15,15,53,8.10
2017,12,15,15,54,8.10
2017,12,15,15,55,8.10
2017,12,15,15,56,8.10
2017,12,15,15,57,8.00
2017,12,15,15,58,8.00
2017,12,15,15,59,8.00
2017,12,15,16,00,7.90
2017,12,15,16,01,7.90
2017,12,15,16,02,7.90
2017,12,15,16,03,8.00
2017,12,15,16,04,8.00
2017,12,15,16,05,8.00
2017,12,15,16,06,7.90
2017,12,15,16,07,7.90
2017,12,15,16,08,7.90
2017,12,15,16,09,7.90
2017,12,15,16,10,7.90
2017,12,15,16,11,7.90
2017,12,15,16,12,7.90
2017,12,15,16,13,7.90
2017,12,15,16,14,7.90
2017,12,15,16,15,7.90
2017,12,15,16,16,7.90
2017,12,15,16,17,7.90
2017,12,15,16,18,7.80
2017,12,15,16,19,7.80
2017,12,15,16,20,7.80
2017,12,15,16,21,7.80
2017,12,15,16,22,7.80
2017,12,15,16,23,7.80
2017,12,15,16,24,7.80
2017,12,15,16,25,7.80
2017,12,15,16,26,7.80
2017,12,15,16,27,7.80
2017,12,15,16,28,7.80
2017,12,15,16,29,7.80
2017,12,15,16,30,7.80
2017,12,15,16,31,7.80
2017,12,15,16,32,7.80
2017,12,15,16,33,7.80
2017,12,15,16,34,7.80
2017,12,15,16,35,7.70
2017,12,15,16,36,7.70
2017,12,15,16,37,7.70
2017,12,15,16,38,7.60
2017,12,15,16,39,7.60
2017,12,15,16,40,7.70
2017,12,15,16,41,7.70
2017,12,15,16,42,7.70
2017,12,15,16,43,7.70
2017,12,15,16,44,7.70
2017,12,15,16,45,7.70
2017,12,15,16,46,7.70
2017,12,15,16,47,7.70
2017,12,15,16,48,7.70
2017,12,15,16,49,7.70
2017,12,15,16,50,7.70
2017,12,15,16,51,7.70
2017,12,15,16,52,7.70
2017,12,15,16,53,7.70
2017,12,15,16,54,7.70
2017,12,15,16,55,7.60
2017,12,15,16,56,7.60
2017,12,15,16,57,7.60
2017,12,15,16,58,7.60
2017,12,15,16,59,7.60
2017,12,15,17,00,7.60
2017,12,15,17,01,7.60
2017,12,15,17,02,7.60
2017,12,15,17,03,7.60
2017,12,15,17,04,7.60
2017,12,15,17,05,7.60
2017,12,15,17,06,7.60
2017,12,15,17,07,7.50
2017,12,15,17,08,7.50
2017,12,15,17,09,7.50
2017,12,15,17,10,7.50
2017,12,15,17,11,7.50
2017,12,15,17,12,7.50
2017,12,15,17,13,7.50
2017,12,15,17,14,7.50
2017,12,15,17,15,7.50
2017,12,15,17,16,7.50
2017,12,15,17,17,7.50
2017,12,15,17,18,7.50
2017,12,15,17,19,7.40
2017,12,15,17,20,7.40
2017,12,15,17,21,7.40
2017,12,15,17,22,7.40
2017,12,15,17,23,7.40
2017,12,15,17,24,7.40
2017,12,15,17,25,7.40
2017,12,15,17,26,7.50
2017,12,15,17,27,7.40
2017,12,15,17,28,7.40
2017,12,15,17,29,7.40
2017,12,15,17,30,7.40
2017,12,15,17,31,7.40
2017,12,15,17,32,7.30
2017,12,15,17,33,7.30
2017,12,15,17,34,7.30
2017,12,15,17,35,7.30
2017,12,15,17,36,7.30
2017,12,15,17,37,7.30
2017,12,15,17,38,7.20
2017,12,15,17,39,7.20
2017,12,15,17,40,7.20
2017,12,15,17,41,7.10
2017,12,15,17,42,7.10
2017,12,15,17,43,7.10
2017,12,15,17,44,7.10
2017,12,15,17,45,7.10
2017,12,15,17,46,7.10
2017,12,15,17,47,7.10
2017,12,15,17,48,7.10
2017,12,15,17,49,7.10
2017,12,15,17,50,7.10
2017,12,15,17,51,7.20
2017,12,15,17,52,7.20
2017,12,15,17,53,7.20
2017,12,15,17,54,7.20
2017,12,15,17,55,7.10
2017,12,15,17,56,7.10
2017,12,15,17,57,7.10
2017,12,15,17,58,7.10
2017,12,15,17,59,7.10
2017,12,15,18,00,7.10
2017,12,15,18,01,7.00
2017,12,15,18,02,7.00
2017,12,15,18,03,7.00
2017,12,15,18,04,6.90
2017,12,15,18,05,6.90
2017,12,15,18,06,6.90